Location: Katherine
(14.4670°S, 132.2670°E)
Time: 22:48:34
(UTC+09:30)

ISS - Pass Details

Date: 21 March 2017
Orbit: 399 x 409 km, 51.6° (Epoch: 29 March)

Event Time Altitude Azimuth Distance (km) Brightness Sun altitude
Rises 20:12:13 0° 235° (SW) 2,310 1.0 -20.4°
Reaches altitude 10° 20:14:33 10° 250° (WSW) 1,447 0.0 -21.0°
Maximum altitude 20:17:12 23° 305° (NW) 898 -1.6 -21.6°
Enters shadow 20:18:36 17° 342° (NNW) 1,077 -1.6 -22.0°
